ETH878C HAAB-FSIA

Flight info

Callsign ETH878C
Flight time N/A
Altitude 37000
Route IMKIT3A IMKIT Q555 MAV UM313 MOGDU/N0489F390 UM313 MOGUD DCT ROUTY ROUTY1D
Aircraft A359/H-SDE2E3GHIJ3J4J5LM1ORWXY/LB1D1

Departure

Time N/A
Airport Addis Ababa Bole International Airport (HAAB)

Arrival

Time 2026-04-30 20:42
Airport Seychelles International Airport (FSIA)
Time Latitude Longitude Altitude Speed Heading
2026-04-30 17:39 6.96399 38.98393 26197 ft 480 kts 162°
2026-04-30 17:41 6.70627 39.06336 27374 ft 488 kts 162°
2026-04-30 17:42 6.64096 39.08340 27719 ft 489 kts 162°
2026-04-30 17:42 6.54324 39.11358 28163 ft 492 kts 162°
2026-04-30 17:43 6.47772 39.13382 28434 ft 494 kts 162°
2026-04-30 17:44 6.37904 39.16421 28808 ft 497 kts 162°
2026-04-30 17:44 6.27940 39.19484 29166 ft 499 kts 162°
2026-04-30 17:46 6.11232 39.24622 29738 ft 505 kts 162°
2026-04-30 17:47 5.97817 39.28738 30476 ft 502 kts 162°
2026-04-30 17:48 5.84592 39.32800 31437 ft 478 kts 162°
2026-04-30 17:48 5.75276 39.35654 32502 ft 462 kts 162°
2026-04-30 17:49 5.64057 39.41246 33985 ft 445 kts 136°
2026-04-30 17:50 5.56629 39.51028 34935 ft 439 kts 124°
2026-04-30 17:51 5.51485 39.58612 35622 ft 435 kts 123°
2026-04-30 17:52 5.46388 39.66084 36334 ft 430 kts 123°
2026-04-30 17:53 5.37972 39.78334 37067 ft 431 kts 124°
2026-04-30 17:54 5.30956 39.88421 37061 ft 449 kts 124°
2026-04-30 17:55 5.23689 39.98927 37049 ft 467 kts 124°
2026-04-30 17:56 5.16174 40.09831 37045 ft 486 kts 124°
2026-04-30 17:57 5.10316 40.18312 37039 ft 498 kts 124°
2026-04-30 17:58 5.04391 40.26878 37032 ft 498 kts 124°
2026-04-30 18:00 4.89300 40.48747 37032 ft 497 kts 124°
2026-04-30 18:01 4.79460 40.62956 37023 ft 495 kts 124°
2026-04-30 18:02 4.67756 40.79966 37027 ft 493 kts 124°
2026-04-30 18:04 4.56042 40.96915 37012 ft 493 kts 124°
2026-04-30 18:06 4.40398 41.19461 36996 ft 492 kts 124°
2026-04-30 18:08 4.26751 41.39199 36985 ft 493 kts 124°
2026-04-30 18:10 4.11101 41.61719 36965 ft 493 kts 124°
2026-04-30 18:11 3.97394 41.81484 36960 ft 494 kts 125°
2026-04-30 18:13 3.88506 41.96169 36961 ft 494 kts 119°
2026-04-30 18:14 3.80104 42.11208 36958 ft 494 kts 119°
2026-04-30 18:15 3.69983 42.29166 36960 ft 493 kts 120°
2026-04-30 18:16 3.63230 42.41110 36960 ft 493 kts 119°
2026-04-30 18:17 3.59885 42.47053 36960 ft 492 kts 119°
2026-04-30 18:18 3.54844 42.56014 36962 ft 492 kts 119°
2026-04-30 18:18 3.51483 42.62011 36963 ft 492 kts 119°
2026-04-30 18:19 3.48139 42.67976 36963 ft 492 kts 119°
2026-04-30 18:19 3.44802 42.73915 36966 ft 492 kts 119°
2026-04-30 18:20 3.41431 42.79900 36968 ft 492 kts 119°
2026-04-30 18:20 3.38071 42.85879 36973 ft 492 kts 119°
2026-04-30 18:21 3.34722 42.91830 36978 ft 492 kts 119°
2026-04-30 18:21 3.31360 42.97794 36981 ft 492 kts 119°
2026-04-30 18:22 3.27991 43.03775 36986 ft 492 kts 119°
2026-04-30 18:22 3.22966 43.12694 36990 ft 493 kts 119°
2026-04-30 18:23 3.19595 43.18677 36991 ft 493 kts 119°
2026-04-30 18:23 3.16229 43.24654 36997 ft 493 kts 119°
2026-04-30 18:24 3.11179 43.33632 36997 ft 493 kts 119°
2026-04-30 18:25 3.07819 43.39586 36998 ft 493 kts 119°
2026-04-30 18:25 3.02746 43.48580 36998 ft 493 kts 119°
2026-04-30 18:26 2.97690 43.57545 36999 ft 494 kts 119°
2026-04-30 18:27 2.92635 43.66510 36994 ft 494 kts 119°
2026-04-30 18:28 2.87565 43.75485 36988 ft 494 kts 119°
2026-04-30 18:28 2.82484 43.84482 36984 ft 494 kts 119°
2026-04-30 18:29 2.75710 43.96483 36980 ft 494 kts 119°
2026-04-30 18:30 2.68981 44.08402 36974 ft 493 kts 119°
2026-04-30 18:31 2.63925 44.17353 36971 ft 493 kts 118°
2026-04-30 18:32 2.58868 44.26308 36972 ft 491 kts 118°
2026-04-30 18:33 2.53820 44.35255 36966 ft 490 kts 118°
2026-04-30 18:33 2.48815 44.44107 36968 ft 490 kts 118°
2026-04-30 18:34 2.43779 44.53028 36965 ft 490 kts 118°
2026-04-30 18:35 2.40439 44.58944 36965 ft 490 kts 118°
2026-04-30 18:35 2.37082 44.64884 36962 ft 490 kts 118°
2026-04-30 18:36 2.32052 44.73772 36962 ft 490 kts 119°
2026-04-30 18:37 2.27013 44.82677 36964 ft 490 kts 119°
2026-04-30 18:37 2.23667 44.88588 36962 ft 490 kts 119°
2026-04-30 18:38 2.20309 44.94522 36964 ft 489 kts 119°
2026-04-30 18:38 2.16976 45.00417 36963 ft 489 kts 119°
2026-04-30 18:39 2.13625 45.06337 36960 ft 489 kts 119°
2026-04-30 18:39 2.10256 45.12281 36959 ft 489 kts 119°
2026-04-30 18:40 2.06922 45.18165 36959 ft 488 kts 119°
2026-04-30 18:40 2.03575 45.24075 36957 ft 488 kts 119°
2026-04-30 18:41 2.00230 45.29970 36954 ft 487 kts 119°
2026-04-30 18:41 1.96835 45.35749 36954 ft 486 kts 120°
2026-04-30 18:42 1.93371 45.41545 36955 ft 485 kts 120°
2026-04-30 18:42 1.88174 45.50226 36952 ft 485 kts 120°
2026-04-30 18:45 1.69281 45.81935 36951 ft 483 kts 119°
2026-04-30 18:46 1.65848 45.87697 36949 ft 483 kts 119°
2026-04-30 18:46 1.62969 45.92533 36949 ft 483 kts 119°
2026-04-30 18:47 1.59560 45.98262 36952 ft 483 kts 119°
2026-04-30 18:47 1.56123 46.04032 36949 ft 482 kts 119°
2026-04-30 18:48 1.52134 46.10726 36949 ft 482 kts 119°
2026-04-30 18:48 1.48698 46.16490 36948 ft 482 kts 119°
2026-04-30 18:49 1.45843 46.21279 36951 ft 482 kts 119°
2026-04-30 18:49 1.42417 46.27026 36946 ft 481 kts 119°
2026-04-30 18:50 1.38434 46.33707 36947 ft 481 kts 119°
2026-04-30 18:50 1.35590 46.38478 36947 ft 481 kts 119°
2026-04-30 18:51 1.32174 46.44206 36948 ft 480 kts 119°
2026-04-30 18:51 1.28193 46.50883 36945 ft 480 kts 119°
2026-04-30 18:52 1.25331 46.55682 36947 ft 480 kts 119°
2026-04-30 18:52 1.21938 46.61372 36943 ft 480 kts 119°
2026-04-30 18:53 1.18523 46.67098 36946 ft 480 kts 119°
2026-04-30 18:53 1.15103 46.72832 36948 ft 480 kts 119°
2026-04-30 18:54 1.11685 46.78562 36949 ft 480 kts 119°
2026-04-30 18:54 1.08299 46.84239 36945 ft 479 kts 119°
2026-04-30 18:55 1.04887 46.89958 36947 ft 479 kts 119°
2026-04-30 18:55 0.99760 46.98552 36946 ft 479 kts 119°
2026-04-30 18:56 0.94646 47.07125 36947 ft 479 kts 119°
2026-04-30 18:57 0.89535 47.15679 36943 ft 480 kts 120°
2026-04-30 18:57 0.86120 47.21399 36945 ft 480 kts 120°
2026-04-30 18:58 0.80987 47.30000 36943 ft 480 kts 120°
2026-04-30 18:59 0.75885 47.38551 36945 ft 480 kts 120°
2026-04-30 19:00 0.68969 47.49949 36944 ft 480 kts 120°
2026-04-30 19:01 0.62020 47.61309 36946 ft 479 kts 120°
2026-04-30 19:02 0.56803 47.69849 36945 ft 479 kts 120°
2026-04-30 19:03 0.49867 47.81206 36946 ft 480 kts 120°
2026-04-30 19:04 0.42920 47.92579 36947 ft 480 kts 120°
2026-04-30 19:05 0.35952 48.03985 36944 ft 481 kts 120°
2026-04-30 19:06 0.28978 48.15401 36942 ft 481 kts 120°
2026-04-30 19:06 0.23758 48.23943 36944 ft 481 kts 120°
2026-04-30 19:07 0.18517 48.32513 36944 ft 482 kts 120°
2026-04-30 19:08 0.11529 48.43940 36941 ft 483 kts 121°
2026-04-30 19:09 0.06275 48.52539 36944 ft 483 kts 120°
2026-04-30 19:09 0.02788 48.58254 36944 ft 483 kts 120°
2026-04-30 19:10 -0.04220 48.69729 36938 ft 484 kts 120°
2026-04-30 19:11 -0.09469 48.78321 36943 ft 484 kts 120°
2026-04-30 19:12 -0.12977 48.84062 36939 ft 484 kts 120°
2026-04-30 19:12 -0.16503 48.89826 36941 ft 484 kts 120°
2026-04-30 19:13 -0.23534 49.01317 36941 ft 484 kts 120°
2026-04-30 19:14 -0.27034 49.07038 36937 ft 485 kts 120°
2026-04-30 19:14 -0.30533 49.12765 36941 ft 484 kts 120°
2026-04-30 19:15 -0.34044 49.18512 36941 ft 484 kts 120°
2026-04-30 19:15 -0.39312 49.27137 36935 ft 483 kts 120°
2026-04-30 19:16 -0.42799 49.32845 36935 ft 483 kts 120°
2026-04-30 19:17 -0.48047 49.41436 36940 ft 482 kts 120°
2026-04-30 19:17 -0.53268 49.49985 36940 ft 481 kts 120°
2026-04-30 19:18 -0.58500 49.58550 36938 ft 481 kts 120°
2026-04-30 19:19 -0.61988 49.64262 36941 ft 481 kts 120°
2026-04-30 19:19 -0.67203 49.72800 36938 ft 481 kts 120°
2026-04-30 19:20 -0.70685 49.78503 36938 ft 480 kts 120°
2026-04-30 19:21 -0.75893 49.87031 36938 ft 480 kts 120°
2026-04-30 19:22 -0.82861 49.98441 36938 ft 480 kts 120°
2026-04-30 19:23 -0.93283 50.15510 36940 ft 480 kts 120°
2026-04-30 19:24 -0.98493 50.24043 36938 ft 479 kts 119°
2026-04-30 19:25 -1.07149 50.38224 36941 ft 479 kts 119°
2026-04-30 19:26 -1.14094 50.49603 36937 ft 478 kts 119°
2026-04-30 19:27 -1.19282 50.58103 36938 ft 478 kts 119°
2026-04-30 19:28 -1.24473 50.66610 36936 ft 479 kts 120°
2026-04-30 19:29 -1.31424 50.78003 36933 ft 480 kts 120°
2026-04-30 19:30 -1.38394 50.89427 36936 ft 481 kts 120°
2026-04-30 19:31 -1.45351 51.00830 36932 ft 481 kts 120°
2026-04-30 19:31 -1.50569 51.09385 36934 ft 481 kts 120°
2026-04-30 19:32 -1.54067 51.15119 36933 ft 481 kts 119°
2026-04-30 19:32 -1.57527 51.20792 36934 ft 481 kts 119°
2026-04-30 19:33 -1.61001 51.26488 36934 ft 480 kts 119°
2026-04-30 19:33 -1.64475 51.32186 36931 ft 480 kts 119°
2026-04-30 19:34 -1.67953 51.37889 36927 ft 480 kts 119°
2026-04-30 19:35 -1.73180 51.46464 36929 ft 480 kts 120°
2026-04-30 19:35 -1.76642 51.52143 36932 ft 481 kts 120°
2026-04-30 19:36 -1.80127 51.57860 36929 ft 481 kts 120°
2026-04-30 19:36 -1.85315 51.66448 36926 ft 482 kts 119°
2026-04-30 19:37 -1.88779 51.72169 36929 ft 482 kts 119°
2026-04-30 19:37 -1.92267 51.77891 36928 ft 482 kts 120°
2026-04-30 19:38 -1.95763 51.83615 36926 ft 483 kts 119°
2026-04-30 19:38 -1.99245 51.89341 36928 ft 483 kts 119°
2026-04-30 19:39 -2.02755 51.95072 36929 ft 484 kts 120°
2026-04-30 19:39 -2.06283 52.00820 36929 ft 484 kts 120°
2026-04-30 19:40 -2.09772 52.06531 36927 ft 484 kts 119°
2026-04-30 19:40 -2.13278 52.12291 36926 ft 484 kts 119°
2026-04-30 19:41 -2.16752 52.18021 36925 ft 484 kts 119°
2026-04-30 19:41 -2.20225 52.23757 36928 ft 484 kts 119°
2026-04-30 19:42 -2.23709 52.29501 36928 ft 484 kts 119°
2026-04-30 19:42 -2.27217 52.35270 36925 ft 484 kts 119°
2026-04-30 19:43 -2.30721 52.41026 36925 ft 484 kts 119°
2026-04-30 19:44 -2.35979 52.49623 36927 ft 485 kts 119°
2026-04-30 19:44 -2.39515 52.55403 36929 ft 485 kts 119°
2026-04-30 19:45 -2.43020 52.61153 36924 ft 485 kts 119°
2026-04-30 19:45 -2.46537 52.66934 36926 ft 485 kts 119°
2026-04-30 19:46 -2.50020 52.72661 36928 ft 485 kts 119°
2026-04-30 19:46 -2.52935 52.77454 36927 ft 485 kts 119°
2026-04-30 19:47 -2.56448 52.83232 36925 ft 484 kts 119°
2026-04-30 19:47 -2.60533 52.89927 36922 ft 484 kts 119°
2026-04-30 19:48 -2.63481 52.94735 36924 ft 484 kts 119°
2026-04-30 19:48 -2.67008 53.00479 36924 ft 484 kts 119°
2026-04-30 19:49 -2.70528 53.06209 36923 ft 484 kts 119°
2026-04-30 19:49 -2.75819 53.14822 36926 ft 484 kts 119°
2026-04-30 19:50 -2.79315 53.20514 36924 ft 483 kts 119°
2026-04-30 19:50 -2.82855 53.26277 36921 ft 483 kts 119°
2026-04-30 19:51 -2.86358 53.31986 36921 ft 482 kts 119°
2026-04-30 19:51 -2.89839 53.37688 36922 ft 482 kts 119°
2026-04-30 19:52 -2.93364 53.43422 36922 ft 481 kts 120°
2026-04-30 19:52 -2.96863 53.49094 36923 ft 481 kts 120°
2026-04-30 19:53 -3.00374 53.54801 36922 ft 481 kts 120°
2026-04-30 19:53 -3.03876 53.60504 36923 ft 481 kts 120°
2026-04-30 19:54 -3.07372 53.66202 36919 ft 481 kts 120°
2026-04-30 19:54 -3.10869 53.71902 36922 ft 481 kts 120°
2026-04-30 19:55 -3.14358 53.77591 36922 ft 480 kts 120°
2026-04-30 19:55 -3.17864 53.83308 36923 ft 481 kts 120°
2026-04-30 19:56 -3.21346 53.88987 36921 ft 481 kts 120°
2026-04-30 19:56 -3.24844 53.94692 36923 ft 481 kts 120°
2026-04-30 19:57 -3.28348 54.00409 36923 ft 481 kts 120°
2026-04-30 19:57 -3.31836 54.06100 36921 ft 481 kts 120°
2026-04-30 19:58 -3.35333 54.11808 36922 ft 481 kts 120°
2026-04-30 19:58 -3.38832 54.17520 36923 ft 481 kts 120°
2026-04-30 19:59 -3.42311 54.23199 36921 ft 480 kts 120°
2026-04-30 20:00 -3.47535 54.31728 36842 ft 476 kts 120°
2026-04-30 20:00 -3.49273 54.34565 36200 ft 476 kts 120°
2026-04-30 20:00 -3.51010 54.37405 35306 ft 481 kts 120°
2026-04-30 20:00 -3.52752 54.40253 34463 ft 487 kts 120°
2026-04-30 20:01 -3.56311 54.46074 32691 ft 495 kts 120°
2026-04-30 20:01 -3.58124 54.49040 31776 ft 498 kts 121°
2026-04-30 20:01 -3.59947 54.52021 30870 ft 502 kts 121°
2026-04-30 20:02 -3.63592 54.57983 28990 ft 507 kts 121°
2026-04-30 20:02 -3.65438 54.61003 28070 ft 500 kts 121°
2026-04-30 20:03 -3.68993 54.66813 25085 ft 486 kts 121°
2026-04-30 20:03 -3.70747 54.69686 23987 ft 474 kts 121°
2026-04-30 20:03 -3.72414 54.72415 23470 ft 449 kts 121°
2026-04-30 20:03 -3.74021 54.75047 22860 ft 438 kts 121°
2026-04-30 20:04 -3.75612 54.77655 22278 ft 440 kts 121°
2026-04-30 20:04 -3.77200 54.80258 21689 ft 437 kts 121°
2026-04-30 20:04 -3.78785 54.82856 21097 ft 435 kts 121°
2026-04-30 20:05 -3.81910 54.87973 19932 ft 429 kts 122°
2026-04-30 20:05 -3.83461 54.90511 19333 ft 427 kts 122°
2026-04-30 20:05 -3.86573 54.95604 18116 ft 424 kts 122°
2026-04-30 20:06 -3.88096 54.98094 17468 ft 422 kts 122°
2026-04-30 20:06 -3.89632 55.00607 16839 ft 419 kts 122°
2026-04-30 20:06 -3.91150 55.03091 16215 ft 416 kts 122°
2026-04-30 20:06 -3.92631 55.05516 15621 ft 413 kts 122°
2026-04-30 20:07 -3.94122 55.07956 15003 ft 410 kts 122°
2026-04-30 20:07 -3.95626 55.10418 14388 ft 408 kts 122°
2026-04-30 20:07 -3.98563 55.15229 13098 ft 403 kts 122°
2026-04-30 20:08 -4.00007 55.17594 12473 ft 400 kts 122°
2026-04-30 20:08 -4.01462 55.19978 11858 ft 396 kts 122°
2026-04-30 20:08 -4.02858 55.22265 11633 ft 374 kts 122°
2026-04-30 20:08 -4.04156 55.24391 11492 ft 339 kts 122°
2026-04-30 20:09 -4.05335 55.26316 11371 ft 310 kts 123°
2026-04-30 20:09 -4.06417 55.28079 11217 ft 286 kts 123°
2026-04-30 20:09 -4.08452 55.31401 10990 ft 277 kts 123°
2026-04-30 20:10 -4.10451 55.34675 10694 ft 276 kts 122°
2026-04-30 20:10 -4.11451 55.36313 10391 ft 274 kts 122°
2026-04-30 20:10 -4.12443 55.37941 10078 ft 273 kts 122°
2026-04-30 20:11 -4.14453 55.41232 9560 ft 288 kts 122°
2026-04-30 20:11 -4.15506 55.42955 9498 ft 287 kts 122°
2026-04-30 20:11 -4.16528 55.44629 9387 ft 276 kts 122°
2026-04-30 20:12 -4.18080 55.47973 9117 ft 267 kts 98°
2026-04-30 20:12 -4.17873 55.49830 8990 ft 269 kts 70°
2026-04-30 20:12 -4.16838 55.51363 8862 ft 271 kts 43°
2026-04-30 20:13 -4.15199 55.52247 8738 ft 273 kts 14°
2026-04-30 20:13 -4.13292 55.52262 8624 ft 273 kts 346°
2026-04-30 20:13 -4.11619 55.51407 8495 ft 272 kts 318°
2026-04-30 20:13 -4.10466 55.49943 8376 ft 271 kts 301°
2026-04-30 20:14 -4.09521 55.48320 8260 ft 272 kts 299°
2026-04-30 20:14 -4.08571 55.46661 8143 ft 271 kts 300°
2026-04-30 20:14 -4.07636 55.45032 8016 ft 271 kts 299°
2026-04-30 20:14 -4.06779 55.43360 7894 ft 270 kts 289°
2026-04-30 20:15 -4.06514 55.41523 7771 ft 267 kts 263°
2026-04-30 20:15 -4.07102 55.39797 7662 ft 263 kts 235°
2026-04-30 20:15 -4.08392 55.38548 7535 ft 260 kts 209°
2026-04-30 20:15 -4.10094 55.37999 7415 ft 258 kts 184°
2026-04-30 20:16 -4.11864 55.38264 7301 ft 258 kts 158°
2026-04-30 20:16 -4.13307 55.39276 7179 ft 257 kts 131°
2026-04-30 20:16 -4.14338 55.40760 7071 ft 258 kts 122°
2026-04-30 20:16 -4.15225 55.42292 6955 ft 258 kts 120°
2026-04-30 20:17 -4.16115 55.43854 6837 ft 257 kts 120°
2026-04-30 20:17 -4.17019 55.45414 6714 ft 256 kts 121°
2026-04-30 20:17 -4.17831 55.47001 6608 ft 257 kts 110°
2026-04-30 20:17 -4.18044 55.48757 6478 ft 258 kts 84°
2026-04-30 20:18 -4.17411 55.50403 6373 ft 259 kts 54°
2026-04-30 20:18 -4.16012 55.51553 6391 ft 260 kts 25°
2026-04-30 20:18 -4.14249 55.51877 6420 ft 262 kts 356°
2026-04-30 20:18 -4.12517 55.51342 6420 ft 263 kts 328°
2026-04-30 20:19 -4.11232 55.50078 6425 ft 263 kts 305°
2026-04-30 20:19 -4.10567 55.49045 6423 ft 263 kts 301°
2026-04-30 20:19 -4.09325 55.46958 6416 ft 263 kts 301°
2026-04-30 20:19 -4.08385 55.45383 6421 ft 264 kts 301°
2026-04-30 20:20 -4.07454 55.43794 6401 ft 264 kts 297°
2026-04-30 20:20 -4.06890 55.42055 6421 ft 262 kts 274°
2026-04-30 20:20 -4.07161 55.40287 6414 ft 259 kts 245°
2026-04-30 20:20 -4.08242 55.38874 6420 ft 256 kts 217°
2026-04-30 20:21 -4.09831 55.38134 6421 ft 255 kts 190°
2026-04-30 20:21 -4.11585 55.38207 6416 ft 254 kts 163°
2026-04-30 20:21 -4.13097 55.39069 6423 ft 254 kts 136°
2026-04-30 20:21 -4.14175 55.40493 6420 ft 255 kts 122°
2026-04-30 20:22 -4.15066 55.42010 6421 ft 255 kts 121°
2026-04-30 20:22 -4.15956 55.43553 6405 ft 255 kts 121°
2026-04-30 20:22 -4.16850 55.45088 6421 ft 255 kts 121°
2026-04-30 20:22 -4.17702 55.46636 6411 ft 256 kts 114°
2026-04-30 20:23 -4.18071 55.48380 6416 ft 257 kts 89°
2026-04-30 20:23 -4.17604 55.50083 6415 ft 259 kts 61°
2026-04-30 20:23 -4.16358 55.51369 6415 ft 261 kts 32°
2026-04-30 20:23 -4.14636 55.51912 6418 ft 262 kts
2026-04-30 20:24 -4.12845 55.51558 6419 ft 263 kts 334°
2026-04-30 20:24 -4.11459 55.50415 6425 ft 262 kts 307°
2026-04-30 20:24 -4.10471 55.48890 6417 ft 263 kts 300°
2026-04-30 20:24 -4.09547 55.47301 6405 ft 263 kts 299°
2026-04-30 20:25 -4.07692 55.44147 6420 ft 264 kts 300°
2026-04-30 20:25 -4.06984 55.42471 6416 ft 263 kts 281°
2026-04-30 20:26 -4.07962 55.39137 6421 ft 256 kts 223°
2026-04-30 20:26 -4.11211 55.38121 6185 ft 253 kts 169°
2026-04-30 20:26 -4.12797 55.38815 6063 ft 253 kts 142°
2026-04-30 20:27 -4.14862 55.41656 5830 ft 253 kts 121°
2026-04-30 20:27 -4.16605 55.44697 5588 ft 252 kts 120°
2026-04-30 20:28 -4.18983 55.47082 5174 ft 249 kts 166°
2026-04-30 20:28 -4.22399 55.46814 4787 ft 249 kts 188°
2026-04-30 20:29 -4.25858 55.46466 4548 ft 248 kts 182°
2026-04-30 20:30 -4.30454 55.46336 4417 ft 247 kts 180°
2026-04-30 20:30 -4.35992 55.46318 4495 ft 247 kts 179°
2026-04-30 20:31 -4.41167 55.46241 4501 ft 248 kts 187°
2026-04-30 20:32 -4.44982 55.42945 4509 ft 252 kts 233°
2026-04-30 20:32 -4.46669 55.40555 4504 ft 252 kts 228°
2026-04-30 20:33 -4.48569 55.39398 4502 ft 234 kts 188°
2026-04-30 20:33 -4.51471 55.40264 4512 ft 215 kts 146°
2026-04-30 20:33 -4.52270 55.40823 4511 ft 203 kts 144°
2026-04-30 20:34 -4.54440 55.42404 4412 ft 189 kts 144°
2026-04-30 20:34 -4.56637 55.43959 4221 ft 206 kts 144°
2026-04-30 20:35 -4.57845 55.44800 3838 ft 216 kts 145°
2026-04-30 20:35 -4.59079 55.45665 3356 ft 217 kts 144°
2026-04-30 20:35 -4.61628 55.46778 2451 ft 209 kts 179°
2026-04-30 20:36 -4.63067 55.46996 1963 ft 201 kts 149°
2026-04-30 20:36 -4.64168 55.47795 1555 ft 194 kts 141°
2026-04-30 20:36 -4.65781 55.49675 1391 ft 156 kts 125°
2026-04-30 20:37 -4.66245 55.50732 1724 ft 174 kts 98°
2026-04-30 20:37 -4.65845 55.51808 2425 ft 171 kts 51°
2026-04-30 20:37 -4.64877 55.52521 2960 ft 178 kts 37°
2026-04-30 20:37 -4.63886 55.53291 3331 ft 188 kts 41°
2026-04-30 20:38 -4.62584 55.53789 3432 ft 215 kts
2026-04-30 20:38 -4.61052 55.53421 3444 ft 231 kts 334°
2026-04-30 20:38 -4.59729 55.52782 3610 ft 197 kts 334°
2026-04-30 20:39 -4.58512 55.51118 3623 ft 176 kts 270°
2026-04-30 20:39 -4.58690 55.49780 3379 ft 196 kts 255°
2026-04-30 20:39 -4.59286 55.48695 3276 ft 170 kts 220°
2026-04-30 20:40 -4.61132 55.47000 2432 ft 176 kts 208°
2026-04-30 20:40 -4.62266 55.46946 2012 ft 169 kts 161°
2026-04-30 20:40 -4.63423 55.47237 1448 ft 173 kts 155°
2026-04-30 20:41 -4.65096 55.48833 647 ft 163 kts 123°
2026-04-30 20:41 -4.65681 55.49749 529 ft 146 kts 125°
2026-04-30 20:41 -4.66276 55.50521 314 ft 141 kts 128°
2026-04-30 20:41 -4.66836 55.51340 49 ft 140 kts 127°
2026-04-30 20:42 -4.67361 55.52076 30 ft 114 kts 125°
2026-04-30 20:42 -4.67761 55.52639 30 ft 86 kts 124°
2026-04-30 20:42 -4.67979 55.52952 28 ft 31 kts 126°
2026-04-30 20:43 -4.68146 55.53181 29 ft 12 kts 121°
2026-04-30 20:43 -4.68161 55.53206 29 ft 15 kts 120°
2026-04-30 20:43 -4.68251 55.53253 30 ft 11 kts 205°
2026-04-30 20:44 -4.68267 55.53203 29 ft 0 kts 296°
2026-04-30 20:45 -4.68232 55.53178 29 ft 23 kts 326°
2026-04-30 20:45 -4.68004 55.53003 29 ft 56 kts 308°
2026-04-30 20:45 -4.67751 55.52641 32 ft 66 kts 304°
2026-04-30 20:46 -4.66998 55.51568 29 ft 51 kts 306°
2026-04-30 20:46 -4.66940 55.51487 29 ft 0 kts 306°
2026-04-30 20:47 -4.66945 55.51352 29 ft 12 kts 200°
2026-04-30 20:47 -4.66955 55.51347 29 ft 0 kts 206°
2026-04-30 20:49 -4.66967 55.51339 28 ft 8 kts 212°
2026-04-30 20:49 -4.66989 55.51273 28 ft 11 kts 299°
2026-04-30 20:50 -4.66986 55.51227 28 ft 2 kts 214°
2026-04-30 20:50 -4.67019 55.51198 28 ft 0 kts 223°
2026-04-30 20:51 -4.67054 55.51208 27 ft 0 kts 214°